Location: Valley View Observatory
(41.0081°N, 76.5874°W)
Time: 01:07:48
(UTC-04:00)

Daily predictions for brighter satellites

Satellite Brightness Start Highest point End
(mag) Time Altitude Azimuth Time Altitude Azimuth Time Altitude Azimuth
Lacrosse 4 Rocket 3.1 00:04:50 10° N 00:08:35 26° NE 00:09:37 24° ENE
Cosmos 2221 Rocket 3.7 00:06:38 10° N 00:11:11 65° E 00:11:13 65° E
Cosmos 2227 Rocket 2.2 00:12:57 47° SW 00:14:36 77° WNW 00:20:18 10° NNE
CZ-4B R/B 2.9 00:17:32 33° NE 00:17:32 33° NE 00:20:02 10° N
Cosmos 2333 Rocket 2.3 00:12:37 10° NNW 00:18:19 65° WSW 00:19:13 56° SSW
Cosmos 1626 3.6 00:19:14 31° WNW 00:19:17 31° WNW 00:22:40 10° NNW
Cosmos 1125 Rocket 3.4 00:19:00 65° SE 00:19:19 67° ESE 00:24:36 10° NNE
Cosmos 1869 4.3 00:15:32 10° NNW 00:19:09 40° W 00:19:09 40° W
Cosmos 1703 Rocket 3.5 00:15:16 10° N 00:19:26 80° NNE 00:19:26 80° NNE
H-2A R/B 3.0 00:17:23 10° NNE 00:20:52 50° ENE 00:20:52 50° ENE
Cosmos 2181 Rocket 4.0 00:15:09 10° N 00:21:33 87° W 00:23:08 55° S
Cosmos 1048 Rocket 4.4 00:16:49 10° N 00:22:06 56° ENE 00:23:00 49° ESE
SL-16 R/B 2.5 00:20:46 10° NNW 00:26:23 58° ENE 00:27:38 47° ESE
Okean 1-7 3.2 00:25:01 10° N 00:28:55 62° NE 00:28:55 62° NE
COSMOS 2428 4.5 00:25:29 10° WNW 00:29:19 19° W 00:30:25 18° WSW
Meteor 1-26 Rocket 4.1 00:27:53 10° N 00:33:29 77° E 00:34:18 64° SE
Cosmos 2184 Rocket 4.1 00:33:12 52° SE 00:34:18 59° E 00:40:23 10° NNE
Cosmos 1689 Rocket 3.9 00:37:09 34° N 00:37:09 34° N 00:39:13 10° N
Cosmos 1455 4.3 00:33:55 10° NW 00:36:20 19° W 00:36:20 19° W
COSMOS 2455 2.9 00:30:58 10° NNW 00:37:01 71° ENE 00:38:28 52° ESE
CZ-4C R/B 4.3 00:40:01 37° NNW 00:40:01 37° NNW 00:42:21 10° NNW
SeaSat 1 3.2 00:41:22 38° WSW 00:41:22 38° WSW 00:45:50 10° NW
Cosmos 2297 Rocket 2.4 00:41:00 48° WSW 00:42:27 66° WNW 00:48:06 10° NNE
FALCON 9 R/B 3.0 00:30:10 10° W 00:42:43 47° SSW 00:42:43 47° SSW
MOS 1-B Rocket 4.2 00:50:57 44° ESE 00:52:22 56° ENE 00:57:50 10° N
Cosmos 2219 Rocket 3.6 00:49:45 10° NW 00:54:05 24° W 00:54:24 23° WSW
NOSS 2-3 (D) 4.1 00:54:42 57° E 00:54:42 57° E 00:59:47 10° NE
Cosmos 1900 4.2 00:50:57 10° NNW 00:55:56 89° NW 00:55:56 89° NW
CZ-2C R/B 4.4 00:55:31 29° ESE 00:57:23 37° ENE 01:02:33 10° N
Helios 1A Rocket 3.3 00:53:30 10° NNE 00:57:01 61° NE 00:57:01 61° NE
SL-08 ROCKET BODY 4.4 00:57:05 62° SSE 00:58:12 80° E 01:04:24 10° N
Cosmos 44 Rocket 3.8 00:58:53 49° E 00:58:53 49° E 01:03:27 10° NE
GEOS 3 Rocket 4.4 01:00:14 38° WSW 01:00:14 38° WSW 01:04:39 10° NW
CZ-2C R/B 2.9 00:55:36 10° NNE 01:00:41 50° E 01:00:49 50° ESE
Cosmos 372 Rocket 3.8 01:03:04 78° SW 01:03:25 86° WNW 01:08:41 10° NNE
BREEZE-M DEB (TANK) 3.4 00:59:25 10° WNW 01:06:32 48° NNE 01:07:21 39° ENE
Meteor 2-3 Rocket 3.7 01:05:45 65° SSW 01:06:36 80° W 01:12:22 10° N
ERBS 4.0 01:09:15 34° N 01:09:15 34° N 01:11:39 10° NNE
Cosmos 158 Rocket 3.9 01:05:16 10° NNW 01:10:36 77° ENE 01:11:02 71° ESE
Meteor 2-10 Rocket 3.7 01:05:38 10° N 01:11:10 73° E 01:11:57 63° SE
ASTEX 1 3.5 01:06:37 10° N 01:11:27 63° W 01:11:38 62° W
Cosmos 2251 Rocket 3.6 01:13:21 10° NNW 01:18:41 68° ENE 01:19:22 61° ESE
Cosmos 2237 Rocket 3.7 01:15:21 10° NW 01:19:39 22° W 01:19:39 22° W
ATLAS 2AS CENTAUR R/B 3.6 01:16:57 21° WSW 01:22:11 52° NW 01:30:05 10° NNE
ALOS 2 4.0 01:23:07 28° W 01:23:07 28° W 01:26:19 10° NW
Cosmos 1892 3.5 01:25:17 48° NNW 01:25:17 48° NNW 01:28:09 10° N
Cosmos 1238 Rocket 4.0 01:20:45 10° N 01:24:29 35° ENE 01:24:29 35° ENE
Cosmos 1733 Rocket 3.2 01:29:42 71° NW 01:29:42 71° NW 01:33:52 10° N
Cosmos 1782 3.4 01:25:42 10° N 01:28:58 55° NNE 01:28:58 55° NNE
Coronas F rocket 4.4 01:35:40 17° N 01:35:40 17° N 01:36:28 10° N
BREEZE-M DEB (TANK) 4.4 01:12:41 10° SW 01:35:59 88° SSE 01:41:12 10° ENE
Cosmos 1340 Rocket 3.5 01:37:51 48° NW 01:37:51 48° NW 01:41:01 10° N
Nadezhda 3 Rocket 3.9 01:35:43 10° N 01:41:56 84° W 01:43:13 59° S
Cosmos 1378 Rocket 3.9 01:39:53 10° N 01:44:12 55° E 01:44:12 55° E
Lacrosse 4 Rocket 3.0 01:43:22 10° NW 01:45:57 27° WNW 01:45:57 27° WNW
CZ-4C R/B 3.5 01:40:30 10° NNW 01:47:22 53° NE 01:54:54 10° SE
USA 238 DEB 3.6 01:40:33 10° NW 01:47:37 88° WSW 01:50:17 42° SSE
USA 238 3.6 01:40:39 10° NW 01:47:44 89° SW 01:50:25 42° SSE
ATLAS 3B R/B 3.0 01:41:35 10° NW 01:48:00 42° WSW 01:48:24 42° WSW
Okean 2 Rocket 4.0 01:49:33 38° E 01:49:43 38° E 01:53:55 10° NNE
CZ-4B R/B 4.4 01:51:18 10° WNW 01:51:18 10° WNW 01:51:18 10° WNW
Okean 3 3.9 01:51:11 10° N 01:55:26 54° E 01:55:32 54° E
Cosmos 1825 2.9 01:58:09 49° NE 01:58:09 49° NE 02:01:16 10° NNE
Cosmos 1356 Rocket 4.2 02:00:18 42° NW 02:00:18 42° NW 02:03:44 10° N
Cosmos 1782 Rocket 3.7 02:02:20 63° E 02:02:20 63° E 02:06:38 10° NNE
Meteor 1-27 Rocket 3.7 01:56:36 10° N 02:02:31 85° W 02:03:41 59° S
Cosmos 2154 Rocket 4.4 02:05:34 42° WSW 02:07:10 52° WNW 02:13:18 10° N
Cosmos 2263 Rocket 2.8 02:08:18 40° SE 02:09:22 45° ESE 02:14:45 10° NE
Cosmos 494 Rocket 4.0 02:04:25 10° NNW 02:09:37 62° WSW 02:09:55 61° WSW
Cosmos 1862 3.5 02:10:02 69° NNW 02:10:02 69° NNW 02:13:39 10° N
SL-16 R/B 3.8 02:06:03 10° NW 02:09:30 19° W 02:09:30 19° W
Cosmos 1408 3.0 02:11:54 63° NNE 02:11:54 63° NNE 02:15:08 10° N
USA 234 3.3 02:05:21 10° SE 02:11:53 79° NE 02:18:26 10° NW
PSLV R/B 3.8 02:09:13 10° NNE 02:13:24 56° E 02:13:25 56° ESE
Cosmos 1184 Rocket 4.4 02:18:28 31° ENE 02:18:28 31° ENE 02:21:03 10° NNE
Cosmos 44 3.5 02:17:14 58° SW 02:18:16 78° WNW 02:23:45 10° NNE
NOSS 3-2 (C) 4.4 02:13:57 10° NNW 02:21:22 62° NE 02:29:18 10° SE
Cosmos 1975 Rocket 2.9 02:21:35 10° N 02:26:01 78° W 02:26:06 77° WSW
Cosmos 1607 3.8 02:23:52 10° NW 02:29:58 68° WSW 02:31:45 46° S
CZ-2C R/B 4.1 02:36:35 32° WSW 02:37:10 33° W 02:42:18 10° NNW
Cosmos 1943 3.1 02:31:31 10° NNW 02:37:13 75° WSW 02:38:54 46° S
Cosmos 1536 Rocket 4.5 02:33:36 10° N 02:37:47 43° ENE 02:39:22 30° SE
Cosmos 921 Rocket 4.2 02:39:19 29° WNW 02:39:40 29° WNW 02:43:22 10° N
CZ-2C R/B 4.3 02:36:47 10° NNW 02:40:35 21° WNW 02:42:21 17° W
SL-08 R/B 4.5 02:39:42 44° SSW 02:41:43 74° W 02:48:01 10° N
Cosmos 1606 4.4 02:39:04 10° NW 02:41:25 23° WNW 02:41:25 23° WNW
NOSS 3-4 (A) 3.5 02:40:57 43° SSW 02:43:17 87° ESE 02:49:53 10° NE
NOSS 3-4 (C) 3.5 02:41:03 43° SSW 02:43:22 86° SE 02:49:59 10° NE
Cosmos 1371 Rocket 4.2 02:42:07 46° S 02:43:37 67° ESE 02:48:57 10° NNE
Cosmos 2056 Rocket 4.1 02:43:31 36° SSE 02:45:13 50° ESE 02:50:18 10° NNE
NOSS 3-2 (A) 3.9 02:39:33 10° NW 02:47:06 85° WSW 02:55:10 10° SSE
Landsat 4 3.6 02:47:13 74° W 02:47:13 74° W 02:50:54 10° NNW
IRS-P3 4.1 02:41:51 10° NNE 02:47:14 78° ESE 02:48:58 44° S
Cosmos 2151 Rocket 3.6 02:46:53 55° SSE 02:47:44 72° E 02:52:11 10° NNE
SL-24 DEB 4.5 02:54:15 10° NNE 02:58:51 63° E 03:00:32 37° SSE
SL-08 R/B 3.4 02:56:47 35° SSE 02:58:54 83° ENE 03:03:51 10° NNW
Cosmos 909 Rocket 4.2 02:56:26 36° S 02:59:10 69° ESE 03:06:19 10° NE
Cosmos 2218 Rocket 4.4 03:01:44 34° SW 03:04:01 48° WNW 03:10:07 10° N
IRAS Rocket 4.2 03:00:11 10° NNE 03:05:43 81° WNW 03:07:58 38° SSW
Resurs 1-4 Rocket 3.9 03:01:45 10° NE 03:06:04 25° E 03:10:09 11° SSE
Okean 1 Rocket 4.1 03:05:06 24° SE 03:07:11 39° E 03:11:20 10° NNE
Cosmos 1339 Rocket 4.4 03:04:38 10° NNW 03:10:42 69° W 03:13:35 32° SSW
SL-27 R/B 4.4 03:08:08 10° N 03:11:22 29° ENE 03:14:37 10° SE
Cosmos 1867 3.5 03:05:53 10° NW 03:11:23 83° WSW 03:15:58 15° SSE
GP-B 3.3 03:08:55 10° N 03:13:21 68° E 03:15:18 32° SSE
Cosmos 1242 Rocket 2.5 03:10:44 10° NNW 03:14:11 57° W 03:14:11 57° W
BREEZE-M DEB (TANK) 3.6 03:06:54 10° WNW 03:14:59 49° SW 03:16:14 36° S
Okean 1 4.0 03:11:07 10° N 03:15:01 52° E 03:17:11 24° SSE
Meteor 1-20 Rocket 4.4 03:11:56 28° S 03:15:05 72° E 03:20:53 10° NNE
RESURS DK-1 2.3 03:15:39 49° SW 03:16:40 73° WNW 03:20:51 10° NNE
AQUA 3.8 03:16:15 10° N 03:21:00 71° WNW 03:22:50 37° SSW
ATLAS 2A CENTAUR R/B 3.8 03:19:13 27° SSW 03:22:00 34° SSE 03:44:16 10° ESE
NPP 3.8 03:18:13 10° N 03:23:31 60° WNW 03:25:55 32° SW
Tiangong 1 0.9 03:24:45 61° WNW 03:25:13 87° NNE 03:28:18 10° ESE
Cosmos 1812 2.7 03:21:41 10° N 03:25:35 83° E 03:27:13 34° SSE
CBERS 1 LM4 rocket 4.3 03:21:53 10° NNE 03:26:54 84° WNW 03:29:09 32° SSW
Cosmos 1624 Rocket 4.2 03:28:03 32° SW 03:30:19 58° WNW 03:35:29 10° NNE
Cosmos 1535 Rocket 4.5 03:30:54 23° S 03:34:58 86° E 03:41:14 10° N
ERS-2 2.9 03:32:17 10° N 03:35:46 39° WNW 03:36:43 33° WSW
CZ-4C R/B 3.4 03:29:18 10° NW 03:35:54 38° WSW 03:40:37 20° SSW
ADEOS 3.5 03:32:07 10° N 03:37:21 76° WNW 03:40:15 27° SSW
Cosmos 1809 Rocket 4.4 03:41:29 21° S 03:45:45 87° W 03:51:56 10° N
Cosmos 1025 Rocket 4.0 03:43:45 10° N 03:47:53 46° ENE 03:52:01 10° SSE
Cosmos 1844 4.4 03:45:40 16° S 03:50:00 48° ESE 03:55:30 10° NE
ARIANE 5 R/B 2.5 03:45:01 10° NNE 03:50:02 85° ESE 03:53:31 20° SSW
CZ-2D R/B 2.5 03:45:47 10° NNE 03:51:11 63° ESE 03:55:50 14° S
Cosmos 1452 Rocket 3.5 03:48:08 23° SSW 03:51:29 85° ESE 03:56:46 10° NNE
Cosmos 1844 Rocket 2.9 03:48:04 20° S 03:52:00 69° ESE 03:57:39 10° NNE
COSMOS 2406 3.2 03:46:50 10° NNW 03:52:37 73° WSW 03:58:20 10° SSE
Cosmos 2263 Rocket 3.5 03:50:00 16° WSW 03:53:28 28° NW 03:58:18 10° N
USA 234 4.0 03:51:14 16° S 03:55:16 28° SW 04:00:45 10° WNW
OTV 4 1.0 03:57:05 35° S 03:57:05 35° S 03:59:44 10° ESE
USA 161 1.9 03:56:54 37° WSW 03:57:11 38° W 03:59:53 10° NNW
Meteor 2-21 4.5 03:55:32 20° SSW 03:59:52 68° W 04:05:58 10° N
H-2A R/B 4.3 03:56:59 19° SW 04:01:32 27° S 04:26:56 10° SE
Abrixas rocket 2.5 04:01:03 23° WSW 04:02:56 62° NNW 04:06:16 10° NE
Meteor 2-16 Rocket 4.5 03:57:56 14° S 04:03:22 87° E 04:09:33 10° N
USA 129 4.5 04:02:43 10° SE 04:04:25 20° ENE 04:06:06 10° NNE
Cosmos 2278 Rocket 3.1 04:00:31 10° S 04:05:48 44° ESE 04:11:09 10° NE
MTI 4.2 04:04:24 10° SSE 04:07:41 66° ENE 04:11:00 10° N
Cosmos 1602 3.6 04:05:52 20° SSW 04:08:28 78° W 04:12:20 10° N
Cosmos 1300 Rocket 4.4 04:07:39 21° SW 04:09:53 34° WNW 04:13:52 10° N
Cosmos 1536 3.0 04:07:20 14° S 04:10:46 77° E 04:14:51 10° N
Cosmos 724 4.4 04:11:10 10° NW 04:17:15 67° WSW 04:23:22 10° SSE
CENTAUR R/B 3.2 04:10:14 10° NW 04:18:08 88° ENE 04:26:28 10° SSE
Meteor 2-4 Rocket 3.8 04:14:11 10° N 04:19:39 75° E 04:24:58 10° SSE
SL-16 R/B 2.6 04:14:18 10° S 04:20:27 60° WSW 04:26:37 10° NNW
CZ-4B R/B 4.3 04:15:35 10° NNE 04:20:59 44° E 04:26:21 10° S
CZ-2C R/B 4.5 04:16:39 10° SSE 04:21:16 59° ENE 04:25:59 10° N
Cosmos 1892 Rocket 3.8 04:16:54 10° N 04:21:17 73° E 04:25:35 10° SSE
Cosmos 1934 Rocket 4.2 04:16:09 15° SSW 04:21:18 54° W 04:27:22 10° N
ATLAS 5 CENTAUR R/B 3.9 04:15:56 10° NNW 04:21:30 40° NE 04:27:26 10° ESE
Gbstr 26 Del rocket 2.8 04:20:43 18° SW 04:23:29 66° SE 04:27:12 10° ENE
UNKNOWN OBJECT B 2.9 04:22:24 10° N 04:26:30 77° WNW 04:30:20 11° SSW
MOS 1-B 4.4 04:23:00 10° N 04:28:48 72° WNW 04:34:34 10° SSW
Cosmos 1741 Rocket 4.1 04:29:51 10° NNW 04:35:11 84° ENE 04:40:26 10° SSE
Cosmos 1850 Rocket 4.1 04:30:00 10° NNW 04:35:16 87° ENE 04:40:31 10° SSE
Cosmos 1140 Rocket 3.4 04:31:14 10° NNW 04:36:21 70° WSW 04:41:26 10° S
Meteor 1-19 Rocket 4.4 04:30:54 10° NNW 04:36:34 57° W 04:42:15 10° S
Okean O Rocket 1.7 04:36:22 10° NNE 04:40:45 82° ESE 04:45:04 10° S
NOSS 2-2 (D) 3.6 04:39:17 12° SW 04:43:07 82° NW 04:47:56 10° NNE
Meteor 1-11 Rocket 4.4 04:39:52 10° SW 04:45:20 43° WNW 04:51:01 10° N
Resurs 1-4 Rocket 2.7 04:41:04 10° N 04:46:02 41° WNW 04:50:58 10° SW
SL-27 R/B 4.2 04:44:04 10° WNW 04:46:25 16° W 04:48:44 10° SW
Cosmos 1605 Rocket 4.4 04:43:33 10° SSW 04:49:25 46° WNW 04:55:25 10° N
IRS-1C Rocket 4.1 04:46:09 10° N 04:51:26 74° WNW 04:56:39 10° SSW
Cosmos 1602 Rocket 4.3 04:49:11 10° N 04:53:28 57° E 04:57:43 10° SSE
BREEZE-M DEB (TANK) 3.7 04:52:42 10° SW 04:57:05 44° SE 05:00:27 10° ENE
NOSS 2-2 (C) 3.8 04:53:34 10° SW 04:57:39 59° NW 05:02:26 10° NNE
Cosmos 1400 Rocket 3.3 04:54:47 10° SSW 04:58:29 42° WNW 05:02:14 10° N
CZ-4B R/B 3.3 04:54:15 10° NNE 04:58:49 81° ESE 05:03:20 10° S
MOZ.5/SAFIR/RUBIN 5/SL-8 3.8 04:55:07 10° S 04:59:53 79° WSW 05:04:42 10° NNW
Tiangong 1 2.2 04:59:03 10° W 05:01:35 23° SSW 05:04:06 10° SSE
SME Rocket 4.3 05:02:02 10° SW 05:04:50 19° W 05:07:40 10° NW
Cosmos 1633 3.9 05:02:02 10° SW 05:05:00 24° WNW 05:08:01 10° NNW
